Content
SEND FEEDBACK

Daily
Averages
Monthly
Summary
Canada

MONCTON, NEW BRUNSWICK


Home > North America > Canada > New Brunswick
Elevation: 232 feet     Latitude: 46 07N     Longitude: 064 41W

WEATHER
 
SELECT A DAY
Number of Records: 208,399;   Date Range: 1/1/95 - 12/18/14
 
SHARE

PRINT THIS DATA

[ ← Previous Day ]
WEATHER ALMANAC - FEBRUARY 17, 2013
[ Next Day → ]
[ °C ]   °F
Weather ElementAverageHighLow
Temperature31 °F33.8 °F (12:05 am)28.4 °F (6:34 pm)
Dewpoint30.3 °F32 °F (2:19 am)26.6 °F (11:00 pm)
Humidity97.1 %100 % (2:19 am)86 % (11:00 pm)
Barometer29.17 in29.78 in (12:05 am)28.43 in (8:00 pm)
Wind Speed20.5 mph29.9 mph (10:00 pm)
Wind Gust40.3 mph (9:00 pm)
Weather ElementAverage
Visibility2.5 mi
Wind DirectionE (85.5 °)

Weather ElementTotal
Precipitation---
Heating Degree Days33.9 (Base 65)
Averaged from 56 records on February 17, 2013
WEATHER CONDITIONS BREAKOUT
WIND DIRECTION BREAKOUT
WEATHER BY HOUR - FEBRUARY 17, 2013
[ °C ]   °F
Local TimeTemperatureDewpointHumidityBarometerVisibilityWind DirectionWind SpeedGust SpeedPrecipitationEventsConditions
12:05 AM33.8 °F30.2 °F87 %29.78 in15.0 miEast (80°)5.8 mphSnowLight Snow
1:00 AM32.0 °F30.2 °F93 %29.75 in4.0 miEast (80°)8.1 mphSnowLight Snow
2:00 AM32.0 °F31.0 °F94 %29.73 in7.0 miEast (80°)6.9 mphSnowLight Snow
2:00 AM32.0 °F30.2 °F93 %29.73 in8.0 miENE (70°)6.9 mphSnowLight Snow
2:19 AM32.0 °F32.0 °F100 %29.72 in10.0 miENE (60°)8.1 mphRain-SnowLight Rain
2:41 AM32.0 °F32.0 °F100 %29.70 in10.0 miENE (60°)8.1 mphRain-SnowLight Rain
3:00 AM32.0 °F32.0 °F100 %29.69 in2.5 miNE (50°)9.2 mphSnowLight Snow
4:00 AM32.0 °F32.0 °F100 %29.64 in2.5 miNE (50°)10.4 mphSnowLight Snow
5:00 AM32.0 °F32.0 °F100 %29.58 in2.5 miNE (40°)13.8 mphSnowLight Snow
5:20 AM32.0 °F32.0 °F100 %29.56 in6.0 miNE (40°)17.3 mphSnowLight Snow
6:00 AM32.0 °F32.0 °F100 %29.53 in10.0 miNNE (30°)13.8 mph20.7 mphSnowLight Snow
6:06 AM32.0 °F32.0 °F100 %29.52 in10.0 miNE (40°)16.1 mphSnowLight Snow
6:41 AM32.0 °F32.0 °F100 %29.49 in7.0 miNE (40°)17.3 mph26.5 mphSnowLight Snow
7:00 AM32.0 °F32.0 °F100 %29.49 in3.0 miNE (40°)17.3 mphSnowLight Snow
7:18 AM32.0 °F32.0 °F100 %29.46 in2.5 miNE (40°)17.3 mph24.2 mphSnowLight Freezing Drizzle
7:35 AM32.0 °F32.0 °F100 %29.44 in1.5 miNNE (30°)20.7 mphSnowLight Snow
7:43 AM32.0 °F32.0 °F100 %29.44 in1.0 miNE (40°)18.4 mph25.3 mphSnowLight Snow
7:53 AM32.0 °F32.0 °F100 %29.44 in1.8 miNNE (30°)20.7 mphSnowLight Snow
8:00 AM32.0 °F31.0 °F96 %29.43 in1.0 miNNE (30°)19.6 mphSnowLight Snow
8:00 AM32.0 °F32.0 °F100 %29.43 in1.0 miNE (40°)18.4 mph28.8 mphSnowLight Snow
8:09 AM32.0 °F30.2 °F93 %29.41 in1.5 miNNE (30°)18.4 mph26.5 mphSnowLight Snow
8:30 AM32.0 °F30.2 °F93 %29.39 in1.5 miNE (40°)20.7 mph27.6 mphLight Freezing Drizzle
8:55 AM32.0 °F30.2 °F93 %29.37 in1.0 miNE (40°)19.6 mph27.6 mphLight Freezing Drizzle
9:00 AM32.0 °F30.2 °F93 %29.37 in0.8 miNE (40°)18.4 mph27.6 mphLight Freezing Drizzle
9:04 AM32.0 °F32.0 °F100 %29.36 in1.5 miNE (40°)19.6 mph26.5 mphLight Freezing Drizzle
9:20 AM32.0 °F32.0 °F100 %29.34 in1.8 miNE (40°)19.6 mph28.8 mphLight Drizzle
9:44 AM32.0 °F32.0 °F100 %29.32 in3.0 miNE (50°)24.2 mph35.7 mphLight Drizzle
10:00 AM32.0 °F32.0 °F100 %29.29 in3.0 miNE (40°)27.6 mph36.8 mphLight Drizzle
10:23 AM32.0 °F30.2 °F93 %29.25 in2.0 miNE (40°)21.9 mph38.0 mphLight Freezing Drizzle
11:00 AM32.0 °F30.2 °F93 %29.22 in1.2 miNE (40°)25.3 mph33.4 mphLight Freezing Drizzle
11:19 AM30.2 °F30.2 °F100 %29.19 in1.5 miNNE (30°)27.6 mph35.7 mphLight Freezing Drizzle
11:28 AM30.2 °F30.2 °F100 %29.17 in1.5 miNNE (30°)25.3 mph36.8 mphSnowLight Freezing Drizzle
11:37 AM30.2 °F30.2 °F100 %29.15 in1.0 miNNE (30°)25.3 mph35.7 mphSnowLight Snow
11:48 AM30.2 °F30.2 °F100 %29.13 in0.8 miNNE (30°)21.9 mph34.5 mphSnowLight Snow
11:53 AM30.2 °F30.2 °F100 %29.13 in0.5 miNNE (30°)23.0 mph31.1 mphSnowSnow
12:00 PM30.2 °F28.4 °F93 %29.11 in0.5 miNNE (30°)23.0 mph33.4 mphSnowSnow
12:05 PM30.2 °F28.4 °F93 %29.09 in0.8 miNNE (30°)24.2 mph33.4 mphSnowLight Snow
12:14 PM30.2 °F28.4 °F93 %29.08 in0.5 miNNE (20°)24.2 mph32.2 mphSnowSnow
12:48 PM30.2 °F28.4 °F93 %29.01 in0.4 miNNE (20°)24.2 mph33.4 mphSnowSnow
1:00 PM30.2 °F28.4 °F93 %28.99 in0.4 miNNE (20°)27.6 mph36.8 mphSnowSnow
1:34 PM30.2 °F28.4 °F93 %28.95 in0.5 miNNE (20°)21.9 mph35.7 mphSnowSnow
2:00 PM30.2 °F28.4 °F93 %28.87 in0.4 miNNE (20°)27.6 mph36.8 mphSnowSnow
2:00 PM30.0 °F28.0 °F91 %28.87 in0.0 miNNE (20°)28.8 mphSnowSnow
3:00 PM30.2 °F30.2 °F100 %28.75 in0.2 miNorth (10°)27.6 mph35.7 mphSnowSnow
3:27 PM30.2 °F30.2 °F100 %28.68 in0.5 miNorth (10°)27.6 mph39.1 mphSnowLight Snow
3:56 PM30.2 °F30.2 °F100 %28.66 in0.4 miNorth (10°)21.9 mph29.9 mphSnowSnow
4:00 PM30.2 °F30.2 °F100 %28.66 in0.4 miNorth (10°)23.0 mph29.9 mphSnowSnow
5:00 PM30.2 °F30.2 °F100 %28.55 in0.4 miNorth (360°)27.6 mph34.5 mphSnowSnow
6:00 PM30.2 °F28.4 °F93 %28.49 in0.6 miNorth (360°)24.2 mph34.5 mphSnowLight Snow
6:34 PM28.4 °F28.4 °F100 %28.48 in0.4 miNorth (350°)21.9 mph35.7 mphSnowLight Snow
7:00 PM28.4 °F28.4 °F100 %28.46 in0.5 miNNW (340°)24.2 mph35.7 mphSnowLight Snow
8:00 PM29.0 °F28.0 °F94 %28.43 in1.0 miNNW (330°)25.3 mphSnowLight Snow
8:00 PM28.4 °F28.4 °F100 %28.43 in0.6 miNNW (330°)25.3 mph33.4 mphSnowLight Snow
9:00 PM28.4 °F28.4 °F100 %28.43 in0.6 miNW (320°)27.6 mph40.3 mphSnowLight Snow
10:00 PM28.4 °F28.4 °F100 %28.45 in0.6 miNNW (330°)29.9 mph40.3 mphSnowLight Snow
11:00 PM30.2 °F26.6 °F86 %28.48 in1.5 miNNW (330°)29.9 mph38.0 mphSnowLight Snow
Hourly data recorded from CYQM, located miles away from Moncton, New Brunswick







STORIES FROM OUR PARTNERS